Regional Weather Roundup
Issued by NWS

Home | Current Version | Previous Version | Graphics & Text | Print | Product List | Glossary Off
Versions: 1 2 3 4 5 6 7 8 9 10 11 12 13 14 15 16 17 18 19 20 21 22 23 24 25 26 27 28 29 30 31 32 33 34 35 36 37 38 39 40 41 42 43 44 45 46 47 48 49 50

000
ASUS43 KMKX 052311
RWRWI

WISCONSIN REGIONAL WEATHER ROUNDUP
NATIONAL WEATHER SERVICE MILWAUKEE/SULLIVAN WI
500 PM CST MON DEC 05 2016

NOTE: "FAIR" INDICATES FEW OR NO CLOUDS BELOW 12,000 FEET WITH NO
SIGNIFICANT WEATHER AND/OR OBSTRUCTIONS TO VISIBILITY.

WIZ001-002-006>008-014>016-023>028-060000-
NORTHWEST WISCONSIN

CITY           SKY/WX    TMP DP  RH WIND       PRES   REMARKS
SUPERIOR ARPT  LGT RAIN  34  33  93 E5        29.75F WCI  30
ASHLAND        CLOUDY    38  30  73 MISG      29.80S
HAYWARD        LGT SNOW  34  30  85 E12       29.74F FOG     WCI  25
SIREN          CLOUDY    34  32  94 SE8       29.70R WCI  27
CUMBERLAND     CLOUDY    32  32 100 SE15      29.71F WCI  22
RICE LAKE      CLOUDY    34  33  99 E17G23    29.74F WCI  23
CHETEK         CLOUDY    33  33 100 SE10G18   29.75F WCI  25
LADYSMITH      CLOUDY    34  32  92 SE9       29.81F WCI  27
EAU CLAIRE     CLOUDY    36  32  85 SE17      29.76F WCI  26
MENOMONIE      CLOUDY    35  33  89 E17       29.73F WCI  25
NEW RICHMOND   CLOUDY    37  32  82 SE14G20   29.70R WCI  28
OSCEOLA        CLOUDY    37  33  85 SE15      29.71R WCI  28
$$

WIZ003>005-009-010-017-018-060000-
NORTH CENTRAL WISCONSIN

CITY           SKY/WX    TMP DP  RH WIND       PRES   REMARKS
MANITOWISH WTR CLOUDY    34  32  93 S8        29.82R WCI  27
ARBOR VITAE    CLOUDY    37  32  85 S9        29.83S WCI  30
WOODRUFF       CLOUDY    37  32  85 S9        29.83S WCI  30
RHINELANDER    CLOUDY    35  31  85 S10       29.86R WCI  27
EAGLE RIVER    MOCLDY    34  29  82 S6        29.84R WCI  29
LAND O LAKES   CLOUDY    35  31  85 SE3       29.85R
PHILLIPS       LGT SNOW  32  31  96 S9        29.82S WCI  24
TOMAHAWK       CLOUDY    32  30  92 S3        29.86S
MEDFORD        CLOUDY    32  31  95 SE12G17   29.83F FOG     WCI  23
MERRILL        CLOUDY    33  32  98 S5        29.88S WCI  28
$$

WIZ029-030-035-036-043>047-060000-
CENTRAL WISCONSIN

CITY           SKY/WX    TMP DP  RH WIND       PRES   REMARKS
WAUSAU         CLOUDY    33  31  92 S9        29.88R WCI  25
MOSINEE        CLOUDY    32  32 100 S10       29.90R FOG     WCI  24
MARSHFIELD     CLOUDY    33  31  92 SE12      29.85F WCI  24
STEVENS POINT  CLOUDY    32  32 100 S7        29.91S FOG     WCI  25
WAUPACA        CLOUDY    35  32  89 CALM      29.95R FOG
WAUTOMA        CLOUDY    33  31  92 S5        29.94R WCI  29
WISC RAPIDS    CLOUDY    34  33  96 SE7       29.91S WCI  28
CAMP DOUGLAS   CLOUDY    34  32  93 SE9       29.87F WCI  26
$$

WIZ011>013-019>022-031-037>040-048>050-060000-
NORTHEAST WISCONSIN

CITY           SKY/WX    TMP DP  RH WIND       PRES   REMARKS
ANTIGO         CLOUDY    31  31 100 S9        29.89R FOG     WCI  22
SHAWANO        CLOUDY    35  32  89 SW5       29.94S WCI  31
OCONTO         CLOUDY    33  31  91 S8        29.96R WCI  27
STURGEON BAY   CLOUDY    34  31  88 S12       29.97R WCI  25
GREEN BAY      CLOUDY    35  33  92 S8        29.96R WCI  29
MANITOWOC      CLOUDY    34  32  92 S7        29.97R WCI  28
APPLETON       CLOUDY    34  32  93 S8        29.93R FOG     WCI  27
CLINTONVILLE   CLOUDY    32  32 100 S7        29.94R WCI  26
OSHKOSH        CLOUDY    33  30  88 S10       29.94S WCI  25
$$

WIZ032>034-041-042-053>061-060000-
SOUTHWEST WISCONSIN

CITY           SKY/WX    TMP DP  RH WIND       PRES   REMARKS
LA CROSSE      CLOUDY    38  31  76 S14       29.83F WCI  30
SPARTA         CLOUDY    35  32  87 S5        29.87S WCI  31
VIROQUA        CLOUDY    32  32  99 SE12      29.84F WCI  23
BOSCOBEL       CLOUDY    35  31  85 CALM      29.90F FOG
PRAIRIE DU CHI CLOUDY    34  30  86 SE9       29.87F WCI  27
PLATTEVILLE    CLOUDY    33  33 100 SE8       29.90F WCI  26
$$

WIZ056-057-062-063-064-067-068-060000-
SOUTH CENTRAL WISCONSIN

CITY           SKY/WX    TMP DP  RH WIND       PRES   REMARKS
REEDSBURG      CLOUDY    32  32  99 S3        29.90F
BARABOO/DELLS  MOCLDY    32  31  94 S12       29.90F WCI  23
LONE ROCK      CLOUDY    33  30  88 SE8       29.93S WCI  26
MINERAL POINT  CLOUDY    34  34 100 SE10      29.90F FOG     WCI  26
MADISON        CLOUDY    32  30  92 S10       29.94S WCI  24
MIDDLETON      NOT AVBL
WATERTOWN      CLOUDY    31  31 100 S6        29.96S WCI  26
MONROE         FOG       32  32 100 S10       29.93S VSB 1/2 WCI  24
JANESVILLE     CLOUDY    34  34 100 S7        29.95S FOG     WCI  28
$$

WIZ051-052-058>065-066-070>072-060000-
SOUTHEAST WISCONSIN

CITY           SKY/WX    TMP DP  RH WIND       PRES   REMARKS
MILWAUKEE      CLOUDY    34  31  88 S8        29.99R WCI  27
WAUKESHA       CLOUDY    30  28  93 S6        29.98S WCI  24
MILWAUKEE/TIMM CLOUDY    32  28  86 S6        29.99S FOG     WCI  26
RACINE         CLOUDY    33  31  92 S5        30.01R FOG     WCI  29
BURLINGTON     CLOUDY    32  31  97 CALM      29.97F
KENOSHA        CLOUDY    33  31  92 S3        29.99R FOG
FOND DU LAC    CLOUDY    33  29  85 S10       29.95F WCI  25
SHEBOYGAN      CLOUDY    33  31  92 S8        29.96S WCI  26
WEST BEND      CLOUDY    32  32 100 S7        29.96S WCI  26
JUNEAU         CLOUDY    31  30  96 S10       29.97R FOG     WCI  22
$$

LSZ147-162-060000-
LAKE SUPERIOR

STATION/POSITION TIME  TEMP    WIND        PRES    WAVE
                       AIR SEA DIR/SP/G            HT/PER
                 (UTC) (F)     (DEG/KT/KT) (MB)    (FT/S)
DEVILS ISLAND    2300   37      90/ 12/ 14 1010.3R
PORT WING        2240   37      80/  2/  4 1009.1R
SAXON HARBOR     2230   39     180/  3/  5 1009.8R
$$

LMZ867-665-643>646-060000-
LAKE MICHIGAN

STATION/POSITION TIME  TEMP    WIND        PRES    WAVE
                       AIR SEA DIR/SP/G            HT/PER
                 (UTC) (F)     (DEG/KT/KT) (MB)    (FT/S)
CHAMBERS ISLAND  2240   36     150/  5/ 10 1013.5R
NORTHPORT PIER   2240   35      CALM  /  5 1013.5S
SISTER BAY       2223   34     170/  9/ 11   N/A
ALGOMA LAKESHORE 2251          240/ 16/ 21   N/A
KEWAUNEE LAKESHO 2242   35     220/  8/ 12 1014.3R
SHEBOYGAN LAKESH 2300   34     190/ 13/ 15 1015.5R
PORT WASHINGTON  2240   34     190/  8/ 11 1016.3S
MILWAUKEE LAKESH 2250   33     210/  7/  8   N/A
KENOSHA   LAKESH 2300   33     190/  3/  6 1015.6
$$

TC  - TEMPERATURE IN CELSIUS
VSB - VISIBILITY IN STATUTE MILES
WCI - WIND CHILL INDEX
HX  - HEAT INDEX




USA.gov is the U.S. government's official web portal to all federal, state and local government web resources and services.